Time,TemperatureF,DewpointF,PressureIn,WindDirection,WindDirectionDegrees,WindSpeedMPH,WindSpeedGustMPH,Humidity,HourlyPrecipIn,Conditions,Clouds,dailyrainin,SoftwareType,DateUTC
2013-09-02 00:01:00,75.2,70.7,29.72,West,270,0.0,0.0,86,0.00,RA,,0.00,WeatherDisplay:10.37,2013-09-02 04:01:00,
2013-09-02 00:06:00,75.0,70.9,29.72,NE,45,0.0,0.0,87,0.00,RA,,0.00,WeatherDisplay:10.37,2013-09-02 04:06:00,
2013-09-02 00:11:00,75.0,70.9,29.72,NE,45,0.0,0.0,87,0.00,CLR,,0.00,WeatherDisplay:10.37,2013-09-02 04:11:00,
2013-09-02 00:16:00,75.0,70.9,29.72,NE,45,0.0,0.0,87,0.00,CLR,,0.00,WeatherDisplay:10.37,2013-09-02 04:16:00,
2013-09-02 00:21:00,75.0,70.9,29.72,NE,45,0.0,0.0,87,0.00,CLR,,0.00,WeatherDisplay:10.37,2013-09-02 04:21:00,
2013-09-02 00:26:00,74.8,70.7,29.72,ENE,68,0.0,0.0,87,0.00,CLR,,0.00,WeatherDisplay:10.37,2013-09-02 04:26:00,
2013-09-02 00:31:00,74.8,70.7,29.72,ENE,68,0.0,0.0,87,0.00,CLR,,0.00,WeatherDisplay:10.37,2013-09-02 04:31:00,
2013-09-02 00:36:00,74.8,70.7,29.72,NE,45,0.0,0.0,87,0.00,CLR,,0.00,WeatherDisplay:10.37,2013-09-02 04:36:00,
2013-09-02 00:41:00,74.8,70.7,29.72,NE,45,0.0,0.0,87,0.00,CLR,,0.00,WeatherDisplay:10.37,2013-09-02 04:41:00,
2013-09-02 00:46:00,74.7,70.5,29.71,ENE,68,0.0,0.0,87,0.00,CLR,,0.00,WeatherDisplay:10.37,2013-09-02 04:46:00,
2013-09-02 00:51:00,74.7,70.5,29.72,NW,315,0.0,0.0,87,0.00,CLR,,0.00,WeatherDisplay:10.37,2013-09-02 04:51:00,
2013-09-02 00:56:00,74.7,70.9,29.72,NW,315,0.0,0.0,88,0.00,CLR,,0.00,WeatherDisplay:10.37,2013-09-02 04:56:00,
2013-09-02 01:01:00,74.7,70.9,29.71,NW,315,0.0,0.0,88,0.00,CLR,,0.00,WeatherDisplay:10.37,2013-09-02 05:01:00,
2013-09-02 01:06:00,74.7,70.9,29.72,NW,315,0.0,0.0,88,0.01,RA,,0.01,WeatherDisplay:10.37,2013-09-02 05:06:00,
2013-09-02 01:11:00,74.7,70.9,29.72,NW,315,0.0,0.0,88,0.01,RA,,0.01,WeatherDisplay:10.37,2013-09-02 05:11:00,
2013-09-02 01:16:00,74.5,70.7,29.72,North,0,0.0,0.0,88,0.01,,,0.01,WeatherDisplay:10.37,2013-09-02 05:16:00,
2013-09-02 01:21:00,74.5,71.0,29.72,North,0,0.0,0.0,89,0.01,CLR,,0.01,WeatherDisplay:10.37,2013-09-02 05:21:00,
2013-09-02 01:26:00,74.5,71.0,29.72,NNE,22,0.0,0.0,89,0.01,CLR,,0.01,WeatherDisplay:10.37,2013-09-02 05:26:00,
2013-09-02 01:31:00,74.5,71.0,29.71,NNE,22,0.0,0.0,89,0.01,CLR,,0.01,WeatherDisplay:10.37,2013-09-02 05:31:00,
2013-09-02 01:36:00,74.5,71.0,29.71,NNE,22,0.0,0.0,89,0.01,CLR,,0.01,WeatherDisplay:10.37,2013-09-02 05:36:00,
2013-09-02 01:41:00,74.3,70.8,29.71,NNE,22,0.0,0.0,89,0.01,CLR,,0.01,WeatherDisplay:10.37,2013-09-02 05:41:00,
2013-09-02 01:46:00,74.3,70.8,29.71,NNE,22,0.0,0.0,89,0.01,CLR,,0.01,WeatherDisplay:10.37,2013-09-02 05:46:00,
2013-09-02 01:51:00,74.3,70.8,29.71,NNE,22,0.0,0.0,89,0.01,CLR,,0.01,WeatherDisplay:10.37,2013-09-02 05:51:00,
2013-09-02 01:56:00,74.1,70.7,29.70,NNE,22,0.0,0.0,89,0.01,CLR,,0.01,WeatherDisplay:10.37,2013-09-02 05:56:00,
2013-09-02 02:01:00,74.1,70.7,29.71,NNE,22,0.0,0.0,89,0.01,CLR,,0.01,WeatherDisplay:10.37,2013-09-02 06:01:00,
2013-09-02 02:06:00,74.1,70.7,29.71,NNE,22,0.0,0.0,89,0.00,CLR,,0.01,WeatherDisplay:10.37,2013-09-02 06:06:00,
2013-09-02 02:11:00,73.9,70.5,29.71,NNE,22,0.0,0.0,89,0.00,CLR,,0.01,WeatherDisplay:10.37,2013-09-02 06:11:00,
2013-09-02 02:16:00,73.9,70.5,29.71,NNE,22,0.0,0.0,89,0.00,CLR,,0.01,WeatherDisplay:10.37,2013-09-02 06:16:00,
2013-09-02 02:21:00,73.8,70.3,29.71,NNE,22,0.0,0.0,89,0.00,CLR,,0.01,WeatherDisplay:10.37,2013-09-02 06:21:00,
2013-09-02 02:26:00,73.8,70.3,29.71,NNW,338,0.0,0.0,89,0.00,CLR,,0.01,WeatherDisplay:10.37,2013-09-02 06:26:00,
2013-09-02 02:31:00,73.8,70.6,29.71,NNE,22,0.0,0.0,90,0.00,CLR,,0.01,WeatherDisplay:10.37,2013-09-02 06:31:00,
2013-09-02 02:36:00,73.8,70.6,29.71,NNE,22,0.0,0.0,90,0.00,CLR,,0.01,WeatherDisplay:10.37,2013-09-02 06:36:00,
2013-09-02 02:41:00,73.8,70.6,29.71,NNE,22,0.0,0.0,90,0.00,CLR,,0.01,WeatherDisplay:10.37,2013-09-02 06:41:00,
2013-09-02 02:46:00,73.8,70.6,29.71,NNE,22,0.0,0.0,90,0.00,CLR,,0.01,WeatherDisplay:10.37,2013-09-02 06:46:00,
2013-09-02 02:51:00,73.8,70.6,29.70,NNE,22,0.0,0.0,90,0.00,CLR,,0.01,WeatherDisplay:10.37,2013-09-02 06:51:00,
2013-09-02 02:56:00,73.8,70.6,29.70,NNE,22,0.0,0.0,90,0.00,CLR,,0.01,WeatherDisplay:10.37,2013-09-02 06:56:00,
2013-09-02 03:01:00,73.8,71.0,29.69,ENE,68,0.0,0.0,91,0.00,CLR,,0.01,WeatherDisplay:10.37,2013-09-02 07:01:00,
2013-09-02 03:06:00,73.8,71.0,29.69,SE,135,0.0,0.0,91,0.00,CLR,,0.01,WeatherDisplay:10.37,2013-09-02 07:06:00,
2013-09-02 03:11:00,73.8,71.0,29.69,SSW,202,1.1,1.1,91,0.00,CLR,,0.01,WeatherDisplay:10.37,2013-09-02 07:11:00,
2013-09-02 03:16:00,73.8,71.0,29.70,SSW,202,0.0,0.0,91,0.00,CLR,,0.01,WeatherDisplay:10.37,2013-09-02 07:16:00,
2013-09-02 03:21:00,73.8,71.0,29.70,SSW,202,0.0,0.0,91,0.00,CLR,,0.01,WeatherDisplay:10.37,2013-09-02 07:21:00,
2013-09-02 03:26:00,73.8,71.0,29.70,SSW,202,0.0,0.0,91,0.00,CLR,,0.01,WeatherDisplay:10.37,2013-09-02 07:26:00,
2013-09-02 03:31:00,73.8,71.0,29.70,SSW,202,0.0,0.0,91,0.00,CLR,,0.01,WeatherDisplay:10.37,2013-09-02 07:31:00,
2013-09-02 03:36:00,73.9,71.1,29.69,SSW,202,0.0,0.0,91,0.00,CLR,,0.01,WeatherDisplay:10.37,2013-09-02 07:36:00,
2013-09-02 03:41:00,73.9,71.1,29.69,SSW,202,0.0,0.0,91,0.00,CLR,,0.01,WeatherDisplay:10.37,2013-09-02 07:41:00,
2013-09-02 03:46:00,73.9,71.1,29.69,SSW,202,0.0,0.0,91,0.00,CLR,,0.01,WeatherDisplay:10.37,2013-09-02 07:46:00,
2013-09-02 03:51:00,73.9,71.1,29.69,SSW,202,0.0,0.0,91,0.00,CLR,,0.01,WeatherDisplay:10.37,2013-09-02 07:51:00,
2013-09-02 03:56:00,73.9,71.1,29.69,SSW,202,0.0,0.0,91,0.00,CLR,,0.01,WeatherDisplay:10.37,2013-09-02 07:56:00,
2013-09-02 04:01:00,73.9,71.1,29.69,SSW,202,0.0,0.0,91,0.00,CLR,,0.01,WeatherDisplay:10.37,2013-09-02 08:01:00,
2013-09-02 04:06:00,74.1,71.3,29.69,SSW,202,0.0,0.0,91,0.00,CLR,,0.01,WeatherDisplay:10.37,2013-09-02 08:06:00,
2013-09-02 04:11:00,74.1,71.3,29.69,SSW,202,0.0,0.0,91,0.00,CLR,,0.01,WeatherDisplay:10.37,2013-09-02 08:11:00,
2013-09-02 04:16:00,74.1,71.3,29.69,East,90,0.0,0.0,91,0.00,CLR,,0.01,WeatherDisplay:10.37,2013-09-02 08:16:00,
2013-09-02 04:21:00,74.1,71.3,29.69,East,90,0.0,0.5,91,0.00,CLR,,0.01,WeatherDisplay:10.37,2013-09-02 08:21:00,
2013-09-02 04:26:00,74.1,71.3,29.69,North,0,0.0,0.0,91,0.00,CLR,,0.01,WeatherDisplay:10.37,2013-09-02 08:26:00,
2013-09-02 04:31:00,74.1,71.3,29.69,NE,45,0.0,0.0,91,0.00,CLR,,0.01,WeatherDisplay:10.37,2013-09-02 08:31:00,
2013-09-02 04:36:00,74.1,71.3,29.69,NE,45,0.0,0.0,91,0.00,CLR,,0.01,WeatherDisplay:10.37,2013-09-02 08:36:00,
2013-09-02 04:41:00,74.1,71.3,29.68,NE,45,0.0,0.0,91,0.00,CLR,,0.01,WeatherDisplay:10.37,2013-09-02 08:41:00,
2013-09-02 04:46:00,74.1,71.3,29.68,NE,45,0.0,0.0,91,0.00,CLR,,0.01,WeatherDisplay:10.37,2013-09-02 08:46:00,
2013-09-02 04:51:00,74.1,71.3,29.68,NE,45,0.0,0.0,91,0.00,CLR,,0.01,WeatherDisplay:10.37,2013-09-02 08:51:00,
2013-09-02 04:56:00,74.1,71.3,29.68,NE,45,0.0,0.0,91,0.00,CLR,,0.01,WeatherDisplay:10.37,2013-09-02 08:56:00,
2013-09-02 05:01:00,74.1,71.3,29.68,NE,45,0.0,0.0,91,0.00,CLR,,0.01,WeatherDisplay:10.37,2013-09-02 09:01:00,
2013-09-02 05:06:00,74.1,71.3,29.68,NE,45,0.0,0.0,91,0.00,CLR,,0.01,WeatherDisplay:10.37,2013-09-02 09:06:00,
2013-09-02 05:11:00,74.1,71.3,29.68,NE,45,0.0,0.0,91,0.00,CLR,,0.01,WeatherDisplay:10.37,2013-09-02 09:11:00,
2013-09-02 05:16:00,74.1,71.3,29.69,NE,45,0.0,0.0,91,0.00,CLR,,0.01,WeatherDisplay:10.37,2013-09-02 09:16:00,
2013-09-02 05:21:00,74.1,71.3,29.69,South,180,0.0,0.0,91,0.00,CLR,,0.01,WeatherDisplay:10.37,2013-09-02 09:21:00,
2013-09-02 05:26:00,74.1,71.3,29.69,South,180,0.0,0.0,91,0.00,CLR,,0.01,WeatherDisplay:10.37,2013-09-02 09:26:00,
2013-09-02 05:31:00,74.1,71.3,29.69,South,180,0.0,0.0,91,0.00,CLR,,0.01,WeatherDisplay:10.37,2013-09-02 09:31:00,
2013-09-02 05:36:00,74.3,71.5,29.69,South,180,0.0,0.0,91,0.00,CLR,,0.01,WeatherDisplay:10.37,2013-09-02 09:36:00,
2013-09-02 05:41:00,74.3,71.5,29.69,South,180,0.0,0.0,91,0.00,CLR,,0.01,WeatherDisplay:10.37,2013-09-02 09:41:00,
2013-09-02 05:46:00,74.3,71.5,29.69,South,180,0.0,0.0,91,0.00,CLR,,0.01,WeatherDisplay:10.37,2013-09-02 09:46:00,
2013-09-02 05:51:00,74.3,71.5,29.69,South,180,0.0,0.0,91,0.00,CLR,,0.01,WeatherDisplay:10.37,2013-09-02 09:51:00,
2013-09-02 05:56:00,74.3,71.5,29.69,South,180,0.0,0.0,91,0.00,CLR,,0.01,WeatherDisplay:10.37,2013-09-02 09:56:00,
2013-09-02 06:01:00,74.3,71.5,29.69,South,180,0.0,0.0,91,0.00,CLR,,0.01,WeatherDisplay:10.37,2013-09-02 10:01:00,
2013-09-02 06:06:00,74.3,71.5,29.69,South,180,0.0,0.0,91,0.00,CLR,,0.01,WeatherDisplay:10.37,2013-09-02 10:06:00,
2013-09-02 06:11:00,74.3,71.5,29.69,South,180,0.0,0.0,91,0.00,CLR,,0.01,WeatherDisplay:10.37,2013-09-02 10:11:00,
2013-09-02 06:16:00,74.3,71.5,29.69,South,180,0.0,0.0,91,0.00,CLR,,0.01,WeatherDisplay:10.37,2013-09-02 10:16:00,
2013-09-02 06:21:00,74.3,71.5,29.70,South,180,0.0,0.0,91,0.00,CLR,,0.01,WeatherDisplay:10.37,2013-09-02 10:21:00,
2013-09-02 06:26:00,74.5,71.7,29.70,South,180,0.0,0.0,91,0.00,CLR,,0.01,WeatherDisplay:10.37,2013-09-02 10:26:00,
2013-09-02 06:31:00,74.3,71.5,29.70,South,180,0.0,0.0,91,0.00,CLR,,0.01,WeatherDisplay:10.37,2013-09-02 10:31:00,
2013-09-02 06:36:00,74.5,71.7,29.70,South,180,0.0,0.0,91,0.00,CLR,,0.01,WeatherDisplay:10.37,2013-09-02 10:36:00,
2013-09-02 06:41:00,74.5,71.7,29.69,ENE,68,0.0,0.0,91,0.00,CLR,,0.01,WeatherDisplay:10.37,2013-09-02 10:41:00,
2013-09-02 06:46:00,74.5,71.7,29.70,ENE,68,0.0,0.0,91,0.00,CLR,,0.01,WeatherDisplay:10.37,2013-09-02 10:46:00,
2013-09-02 06:51:00,74.5,71.7,29.69,ENE,68,0.0,0.0,91,0.00,CLR,,0.01,WeatherDisplay:10.37,2013-09-02 10:51:00,
2013-09-02 06:56:00,74.5,71.7,29.69,ENE,68,0.0,0.0,91,0.00,CLR,,0.01,WeatherDisplay:10.37,2013-09-02 10:56:00,
2013-09-02 07:01:00,74.5,71.7,29.69,ENE,68,0.0,0.0,91,0.00,CLR,,0.01,WeatherDisplay:10.37,2013-09-02 11:01:00,
2013-09-02 07:06:00,74.5,71.7,29.69,ENE,68,0.0,0.0,91,0.00,CLR,,0.01,WeatherDisplay:10.37,2013-09-02 11:06:00,
2013-09-02 07:11:00,74.5,71.7,29.70,ENE,68,0.0,0.0,91,0.00,CLR,,0.01,WeatherDisplay:10.37,2013-09-02 11:11:00,
2013-09-02 07:16:00,74.5,71.7,29.70,ENE,68,0.0,0.0,91,0.00,CLR,,0.01,WeatherDisplay:10.37,2013-09-02 11:16:00,
2013-09-02 07:21:00,74.7,71.9,29.69,ENE,68,0.0,0.0,91,0.00,CLR,,0.01,WeatherDisplay:10.37,2013-09-02 11:21:00,
2013-09-02 07:26:00,74.7,71.9,29.70,ENE,68,0.0,0.0,91,0.00,CLR,,0.01,WeatherDisplay:10.37,2013-09-02 11:26:00,
2013-09-02 07:31:00,74.7,71.9,29.70,ENE,68,0.0,0.0,91,0.00,CLR,,0.01,WeatherDisplay:10.37,2013-09-02 11:31:00,
2013-09-02 07:36:00,74.8,72.0,29.70,ENE,68,0.0,0.0,91,0.00,CLR,,0.01,WeatherDisplay:10.37,2013-09-02 11:36:00,
2013-09-02 07:41:00,74.8,72.0,29.71,ENE,68,0.0,0.0,91,0.00,CLR,,0.01,WeatherDisplay:10.37,2013-09-02 11:41:00,
2013-09-02 07:46:00,74.8,72.0,29.71,West,270,0.0,0.0,91,0.00,CLR,,0.01,WeatherDisplay:10.37,2013-09-02 11:46:00,
2013-09-02 07:51:00,75.0,72.2,29.71,East,90,0.0,0.0,91,0.00,CLR,,0.01,WeatherDisplay:10.37,2013-09-02 11:51:00,
2013-09-02 07:56:00,75.0,72.2,29.71,ENE,68,0.0,0.0,91,0.00,CLR,,0.01,WeatherDisplay:10.37,2013-09-02 11:56:00,
2013-09-02 08:01:00,75.2,72.4,29.70,ENE,68,0.0,0.0,91,0.00,CLR,,0.01,WeatherDisplay:10.37,2013-09-02 12:01:00,
2013-09-02 08:06:00,75.2,72.4,29.70,SSW,202,0.0,0.0,91,0.00,CLR,,0.01,WeatherDisplay:10.37,2013-09-02 12:06:00,
2013-09-02 08:11:00,75.2,72.4,29.70,SSW,202,0.0,0.0,91,0.00,CLR,,0.01,WeatherDisplay:10.37,2013-09-02 12:11:00,
2013-09-02 08:16:00,75.4,72.6,29.70,SSW,202,0.0,0.0,91,0.00,CLR,,0.01,WeatherDisplay:10.37,2013-09-02 12:16:00,
2013-09-02 08:21:00,75.6,72.7,29.70,WSW,248,0.0,0.0,91,0.00,CLR,,0.01,WeatherDisplay:10.37,2013-09-02 12:21:00,
2013-09-02 08:26:00,75.6,72.7,29.70,SSW,202,1.1,0.0,91,0.00,CLR,,0.01,WeatherDisplay:10.37,2013-09-02 12:26:00,
2013-09-02 08:31:00,75.9,73.1,29.70,SE,135,0.0,0.0,91,0.00,CLR,,0.01,WeatherDisplay:10.37,2013-09-02 12:31:00,
2013-09-02 08:36:00,76.1,73.0,29.70,ESE,112,0.0,0.0,90,0.00,CLR,,0.01,WeatherDisplay:10.37,2013-09-02 12:36:00,
2013-09-02 08:41:00,75.9,72.8,29.70,NW,315,0.0,0.0,90,0.00,CLR,,0.01,WeatherDisplay:10.37,2013-09-02 12:41:00,
2013-09-02 08:46:00,76.1,73.0,29.71,NW,315,0.0,0.0,90,0.00,CLR,,0.01,WeatherDisplay:10.37,2013-09-02 12:46:00,
2013-09-02 08:51:00,76.1,73.0,29.70,NNW,338,1.1,1.1,90,0.00,CLR,,0.01,WeatherDisplay:10.37,2013-09-02 12:51:00,
2013-09-02 08:56:00,76.3,72.8,29.71,North,0,0.0,0.0,89,0.00,CLR,,0.01,WeatherDisplay:10.37,2013-09-02 12:56:00,
2013-09-02 09:01:00,76.3,72.8,29.71,North,0,1.1,0.0,89,0.00,CLR,,0.01,WeatherDisplay:10.37,2013-09-02 13:01:00,
2013-09-02 09:06:00,76.5,73.0,29.71,NW,315,1.6,1.6,89,0.00,CLR,,0.01,WeatherDisplay:10.37,2013-09-02 13:06:00,
2013-09-02 09:11:00,76.6,73.2,29.71,ENE,68,1.1,1.1,89,0.00,CLR,,0.01,WeatherDisplay:10.37,2013-09-02 13:11:00,
2013-09-02 09:16:00,76.8,73.3,29.70,SE,135,0.2,0.2,89,0.00,CLR,,0.01,WeatherDisplay:10.37,2013-09-02 13:16:00,
2013-09-02 09:21:00,77.0,73.5,29.71,NW,315,1.1,1.1,89,0.00,CLR,,0.01,WeatherDisplay:10.37,2013-09-02 13:21:00,
2013-09-02 09:26:00,77.4,73.5,29.71,East,90,1.1,0.0,88,0.00,CLR,,0.01,WeatherDisplay:10.37,2013-09-02 13:26:00,
2013-09-02 09:31:00,77.5,74.0,29.70,SSW,202,2.3,2.3,89,0.00,CLR,,0.01,WeatherDisplay:10.37,2013-09-02 13:31:00,
2013-09-02 09:36:00,78.1,74.2,29.70,South,180,1.1,0.0,88,0.00,CLR,,0.01,WeatherDisplay:10.37,2013-09-02 13:36:00,
2013-09-02 09:41:00,78.3,74.4,29.70,SSE,158,1.1,1.1,88,0.00,CLR,,0.01,WeatherDisplay:10.37,2013-09-02 13:41:00,
2013-09-02 09:46:00,78.4,74.2,29.69,South,180,0.0,0.0,87,0.00,CLR,,0.01,WeatherDisplay:10.37,2013-09-02 13:46:00,
2013-09-02 09:51:00,78.4,74.2,29.69,North,0,0.0,0.0,87,0.00,CLR,,0.01,WeatherDisplay:10.37,2013-09-02 13:51:00,
2013-09-02 09:56:00,78.3,74.1,29.69,SSW,202,1.1,1.1,87,0.00,CLR,,0.01,WeatherDisplay:10.37,2013-09-02 13:56:00,
2013-09-02 10:01:00,78.1,73.9,29.69,SW,225,1.1,1.1,87,0.00,CLR,,0.01,WeatherDisplay:10.37,2013-09-02 14:01:00,
2013-09-02 10:06:00,78.3,74.1,29.69,ENE,68,0.0,0.5,87,0.00,CLR,,0.01,WeatherDisplay:10.37,2013-09-02 14:06:00,
2013-09-02 10:11:00,78.3,74.1,29.69,SSW,202,0.0,0.0,87,0.00,CLR,,0.01,WeatherDisplay:10.37,2013-09-02 14:11:00,
2013-09-02 10:16:00,78.4,74.2,29.69,SW,225,0.0,0.5,87,0.00,CLR,,0.01,WeatherDisplay:10.37,2013-09-02 14:16:00,
2013-09-02 10:21:00,78.8,74.6,29.69,ESE,112,0.0,0.0,87,0.00,CLR,,0.01,WeatherDisplay:10.37,2013-09-02 14:21:00,
2013-09-02 10:26:00,79.0,74.4,29.70,NNW,338,0.0,0.0,86,0.00,CLR,,0.01,WeatherDisplay:10.37,2013-09-02 14:26:00,
2013-09-02 10:31:00,79.2,74.6,29.70,SSW,202,1.1,1.1,86,0.00,CLR,,0.01,WeatherDisplay:10.37,2013-09-02 14:31:00,
2013-09-02 10:36:00,79.2,74.3,29.70,SSW,202,0.0,0.0,85,0.00,CLR,,0.01,WeatherDisplay:10.37,2013-09-02 14:36:00,
2013-09-02 10:41:00,79.2,74.3,29.70,SW,225,0.5,0.5,85,0.00,CLR,,0.01,WeatherDisplay:10.37,2013-09-02 14:41:00,
2013-09-02 10:46:00,79.2,74.3,29.70,SSW,202,0.0,0.0,85,0.00,CLR,,0.01,WeatherDisplay:10.37,2013-09-02 14:46:00,
2013-09-02 10:51:00,79.0,74.1,29.70,WSW,248,0.0,0.0,85,0.00,CLR,,0.01,WeatherDisplay:10.37,2013-09-02 14:51:00,
2013-09-02 10:56:00,78.8,73.9,29.70,ESE,112,1.1,0.0,85,0.00,CLR,,0.01,WeatherDisplay:10.37,2013-09-02 14:56:00,
2013-09-02 11:01:00,78.8,73.9,29.70,ESE,112,0.0,0.0,85,0.00,CLR,,0.01,WeatherDisplay:10.37,2013-09-02 15:01:00,
2013-09-02 11:06:00,78.6,73.7,29.70,ESE,112,0.0,0.0,85,0.00,CLR,,0.01,WeatherDisplay:10.37,2013-09-02 15:06:00,
2013-09-02 11:11:00,78.6,73.7,29.70,ESE,112,0.0,0.0,85,0.00,CLR,,0.01,WeatherDisplay:10.37,2013-09-02 15:11:00,
2013-09-02 11:16:00,78.6,73.7,29.70,East,90,0.0,0.0,85,0.00,CLR,,0.01,WeatherDisplay:10.37,2013-09-02 15:16:00,
2013-09-02 11:21:00,78.6,73.7,29.71,East,90,0.0,0.0,85,0.00,CLR,,0.01,WeatherDisplay:10.37,2013-09-02 15:21:00,
2013-09-02 11:26:00,78.6,73.7,29.70,East,90,0.0,0.0,85,0.00,CLR,,0.01,WeatherDisplay:10.37,2013-09-02 15:26:00,
2013-09-02 11:31:00,78.4,73.6,29.70,East,90,0.0,0.0,85,0.00,CLR,,0.01,WeatherDisplay:10.37,2013-09-02 15:31:00,
2013-09-02 11:36:00,78.4,73.6,29.70,East,90,0.0,0.0,85,0.00,CLR,,0.01,WeatherDisplay:10.37,2013-09-02 15:36:00,
2013-09-02 11:41:00,78.4,73.6,29.70,North,0,0.0,0.0,85,0.00,CLR,,0.01,WeatherDisplay:10.37,2013-09-02 15:41:00,
2013-09-02 11:46:00,78.8,73.9,29.70,WSW,248,1.1,0.0,85,0.00,CLR,,0.01,WeatherDisplay:10.37,2013-09-02 15:46:00,
2013-09-02 11:51:00,78.8,73.9,29.70,NW,315,0.0,0.0,85,0.00,CLR,,0.01,WeatherDisplay:10.37,2013-09-02 15:51:00,
2013-09-02 11:56:00,79.0,74.1,29.70,WNW,292,0.0,0.0,85,0.00,CLR,,0.01,WeatherDisplay:10.37,2013-09-02 15:56:00,
2013-09-02 12:01:00,79.2,73.9,29.69,WNW,292,0.0,0.0,84,0.00,CLR,,0.01,WeatherDisplay:10.37,2013-09-02 16:01:00,
2013-09-02 12:06:00,79.2,74.3,29.69,SE,135,0.0,0.0,85,0.00,CLR,,0.01,WeatherDisplay:10.37,2013-09-02 16:06:00,
2013-09-02 12:11:00,79.2,73.9,29.69,NW,315,0.0,0.7,84,0.00,CLR,,0.01,WeatherDisplay:10.37,2013-09-02 16:11:00,
2013-09-02 12:16:00,79.2,73.9,29.69,NNE,22,1.1,1.1,84,0.00,CLR,,0.01,WeatherDisplay:10.37,2013-09-02 16:16:00,
2013-09-02 12:21:00,79.2,73.9,29.69,West,270,1.1,1.1,84,0.00,CLR,,0.01,WeatherDisplay:10.37,2013-09-02 16:21:00,
2013-09-02 12:26:00,79.3,74.1,29.69,West,270,1.1,1.1,84,0.00,CLR,,0.01,WeatherDisplay:10.37,2013-09-02 16:26:00,
2013-09-02 12:31:00,79.5,74.3,29.69,NE,45,1.1,0.0,84,0.00,CLR,,0.01,WeatherDisplay:10.37,2013-09-02 16:31:00,
2013-09-02 12:36:00,79.5,74.3,29.68,NNW,338,0.5,0.5,84,0.00,CLR,,0.01,WeatherDisplay:10.37,2013-09-02 16:36:00,
2013-09-02 12:41:00,79.5,74.3,29.68,North,0,0.0,0.0,84,0.00,CLR,,0.01,WeatherDisplay:10.37,2013-09-02 16:41:00,
2013-09-02 12:46:00,79.5,74.3,29.68,WNW,292,1.1,1.1,84,0.00,CLR,,0.01,WeatherDisplay:10.37,2013-09-02 16:46:00,
2013-09-02 12:51:00,79.5,74.3,29.68,ENE,68,0.5,0.5,84,0.00,CLR,,0.01,WeatherDisplay:10.37,2013-09-02 16:51:00,
2013-09-02 12:56:00,79.3,74.1,29.67,NW,315,0.0,0.0,84,0.00,CLR,,0.01,WeatherDisplay:10.37,2013-09-02 16:56:00,
2013-09-02 13:01:00,79.3,74.1,29.67,ESE,112,0.5,0.5,84,0.00,CLR,,0.01,WeatherDisplay:10.37,2013-09-02 17:01:00,
2013-09-02 13:06:00,79.3,74.1,29.67,NNE,22,0.2,0.2,84,0.00,CLR,,0.01,WeatherDisplay:10.37,2013-09-02 17:06:00,
2013-09-02 13:11:00,79.5,74.3,29.67,WSW,248,1.1,0.0,84,0.00,CLR,,0.01,WeatherDisplay:10.37,2013-09-02 17:11:00,
2013-09-02 13:16:00,79.9,74.6,29.67,SSE,158,0.0,0.0,84,0.00,CLR,,0.01,WeatherDisplay:10.37,2013-09-02 17:16:00,
2013-09-02 13:21:00,79.9,74.6,29.67,SSE,158,0.0,0.0,84,0.00,CLR,,0.01,WeatherDisplay:10.37,2013-09-02 17:21:00,
2013-09-02 13:26:00,80.1,74.4,29.67,ENE,68,0.0,0.0,83,0.00,CLR,,0.01,WeatherDisplay:10.37,2013-09-02 17:26:00,
2013-09-02 13:31:00,79.9,74.3,29.67,NE,45,0.0,0.0,83,0.00,CLR,,0.01,WeatherDisplay:10.37,2013-09-02 17:31:00,
2013-09-02 13:36:00,80.1,74.4,29.67,East,90,0.5,0.5,83,0.00,CLR,,0.01,WeatherDisplay:10.37,2013-09-02 17:36:00,
2013-09-02 13:41:00,79.9,74.3,29.67,East,90,0.0,0.0,83,0.00,CLR,,0.01,WeatherDisplay:10.37,2013-09-02 17:41:00,
2013-09-02 13:46:00,79.9,74.3,29.67,North,0,0.0,0.0,83,0.00,CLR,,0.01,WeatherDisplay:10.37,2013-09-02 17:46:00,
2013-09-02 13:51:00,79.9,74.3,29.67,SSE,158,0.0,0.0,83,0.00,CLR,,0.01,WeatherDisplay:10.37,2013-09-02 17:51:00,
2013-09-02 13:56:00,79.7,74.1,29.67,WNW,292,0.5,0.5,83,0.00,CLR,,0.01,WeatherDisplay:10.37,2013-09-02 17:56:00,
2013-09-02 14:01:00,79.5,73.9,29.68,East,90,1.1,1.1,83,0.00,CLR,,0.01,WeatherDisplay:10.37,2013-09-02 18:01:00,
2013-09-02 14:06:00,79.3,73.7,29.68,East,90,0.0,0.0,83,0.00,CLR,,0.01,WeatherDisplay:10.37,2013-09-02 18:06:00,
2013-09-02 14:11:00,79.3,74.1,29.67,NNW,338,0.0,0.0,84,0.00,CLR,,0.01,WeatherDisplay:10.37,2013-09-02 18:11:00,
2013-09-02 14:16:00,79.2,73.9,29.67,NNW,338,0.0,0.0,84,0.00,CLR,,0.01,WeatherDisplay:10.37,2013-09-02 18:16:00,
2013-09-02 14:21:00,79.0,73.7,29.67,NNW,338,0.2,0.2,84,0.01,RA,,0.02,WeatherDisplay:10.37,2013-09-02 18:21:00,
2013-09-02 14:26:00,79.0,74.1,29.67,South,180,0.2,0.2,85,0.01,RA,,0.02,WeatherDisplay:10.37,2013-09-02 18:26:00,
2013-09-02 14:31:00,79.0,74.1,29.67,NNW,338,1.1,1.1,85,0.01,CLR,,0.02,WeatherDisplay:10.37,2013-09-02 18:31:00,
2013-09-02 14:36:00,78.8,73.9,29.67,SW,225,1.1,1.1,85,0.01,CLR,,0.02,WeatherDisplay:10.37,2013-09-02 18:36:00,
2013-09-02 14:41:00,78.4,73.6,29.67,South,180,2.3,2.3,85,0.01,CLR,,0.02,WeatherDisplay:10.37,2013-09-02 18:41:00,
2013-09-02 14:46:00,78.1,73.2,29.67,SW,225,1.1,1.1,85,0.01,CLR,,0.02,WeatherDisplay:10.37,2013-09-02 18:46:00,
2013-09-02 14:51:00,77.7,72.5,29.66,SE,135,1.1,1.1,84,0.02,RA,,0.03,WeatherDisplay:10.37,2013-09-02 18:51:00,
2013-09-02 14:56:00,77.4,72.5,29.66,SSW,202,0.2,0.2,85,0.02,RA,,0.03,WeatherDisplay:10.37,2013-09-02 18:56:00,
2013-09-02 15:01:00,77.0,72.1,29.66,ESE,112,0.0,0.0,85,0.02,CLR,,0.03,WeatherDisplay:10.37,2013-09-02 19:01:00,
2013-09-02 15:06:00,77.0,72.1,29.66,East,90,0.0,0.0,85,0.03,RA,,0.04,WeatherDisplay:10.37,2013-09-02 19:06:00,
2013-09-02 15:11:00,76.6,72.1,29.66,SE,135,0.0,0.0,86,0.03,RA,,0.04,WeatherDisplay:10.37,2013-09-02 19:11:00,
2013-09-02 15:16:00,76.6,72.1,29.65,ESE,112,0.0,0.0,86,0.03,CLR,,0.04,WeatherDisplay:10.37,2013-09-02 19:16:00,
2013-09-02 15:21:00,76.6,72.1,29.65,SE,135,0.0,0.0,86,0.02,CLR,,0.04,WeatherDisplay:10.37,2013-09-02 19:21:00,
2013-09-02 15:26:00,76.6,72.5,29.65,ESE,112,0.0,0.0,87,0.02,CLR,,0.04,WeatherDisplay:10.37,2013-09-02 19:26:00,
2013-09-02 15:31:00,76.6,72.5,29.66,ESE,112,0.0,0.0,87,0.02,CLR,,0.04,WeatherDisplay:10.37,2013-09-02 19:31:00,
2013-09-02 15:36:00,76.8,72.7,29.66,ESE,112,0.0,0.0,87,0.02,CLR,,0.04,WeatherDisplay:10.37,2013-09-02 19:36:00,
2013-09-02 15:41:00,77.0,72.8,29.65,SW,225,1.1,1.1,87,0.02,CLR,,0.04,WeatherDisplay:10.37,2013-09-02 19:41:00,
2013-09-02 15:46:00,77.4,73.2,29.65,SSW,202,1.1,0.0,87,0.02,CLR,,0.04,WeatherDisplay:10.37,2013-09-02 19:46:00,
2013-09-02 15:51:00,77.7,73.5,29.65,East,90,1.1,1.1,87,0.01,CLR,,0.04,WeatherDisplay:10.37,2013-09-02 19:51:00,
2013-09-02 15:56:00,78.1,73.9,29.65,SW,225,1.1,0.0,87,0.01,CLR,,0.04,WeatherDisplay:10.37,2013-09-02 19:56:00,
2013-09-02 16:01:00,78.4,74.2,29.65,ENE,68,1.1,1.1,87,0.01,CLR,,0.04,WeatherDisplay:10.37,2013-09-02 20:01:00,
2013-09-02 16:06:00,78.8,74.3,29.65,SSW,202,1.6,1.6,86,0.00,CLR,,0.04,WeatherDisplay:10.37,2013-09-02 20:06:00,
2013-09-02 16:11:00,79.3,74.4,29.65,SW,225,1.1,1.1,85,0.00,CLR,,0.04,WeatherDisplay:10.37,2013-09-02 20:11:00,
2013-09-02 16:16:00,79.7,74.8,29.65,NE,45,0.2,0.2,85,0.00,CLR,,0.04,WeatherDisplay:10.37,2013-09-02 20:16:00,
2013-09-02 16:21:00,80.2,75.3,29.64,SSW,202,0.9,0.9,85,0.00,CLR,,0.04,WeatherDisplay:10.37,2013-09-02 20:21:00,
2013-09-02 16:26:00,81.0,75.7,29.64,SSE,158,1.1,1.1,84,0.00,CLR,,0.04,WeatherDisplay:10.37,2013-09-02 20:26:00,
2013-09-02 16:31:00,81.5,76.2,29.64,East,90,1.1,1.1,84,0.00,CLR,,0.04,WeatherDisplay:10.37,2013-09-02 20:31:00,
2013-09-02 16:36:00,81.5,75.5,29.64,NW,315,0.0,0.0,82,0.00,CLR,,0.04,WeatherDisplay:10.37,2013-09-02 20:36:00,
2013-09-02 16:41:00,81.1,74.0,29.64,SW,225,0.5,0.5,79,0.00,CLR,,0.04,WeatherDisplay:10.37,2013-09-02 20:41:00,
2013-09-02 16:46:00,80.6,73.9,29.64,WNW,292,1.1,1.1,80,0.00,CLR,,0.04,WeatherDisplay:10.37,2013-09-02 20:46:00,
2013-09-02 16:51:00,80.4,74.1,29.64,SSW,202,1.1,0.0,81,0.00,CLR,,0.04,WeatherDisplay:10.37,2013-09-02 20:51:00,
2013-09-02 16:56:00,80.2,73.9,29.64,SSW,202,0.0,0.0,81,0.00,CLR,,0.04,WeatherDisplay:10.37,2013-09-02 20:56:00,
2013-09-02 17:01:00,80.1,73.7,29.64,WNW,292,0.0,0.0,81,0.00,CLR,,0.04,WeatherDisplay:10.37,2013-09-02 21:01:00,
2013-09-02 17:06:00,79.9,73.5,29.65,SSE,158,1.1,1.1,81,0.00,CLR,,0.04,WeatherDisplay:10.37,2013-09-02 21:06:00,
2013-09-02 17:11:00,79.9,73.9,29.65,SE,135,1.1,1.1,82,0.00,CLR,,0.04,WeatherDisplay:10.37,2013-09-02 21:11:00,
2013-09-02 17:16:00,79.9,73.9,29.65,SE,135,1.1,0.0,82,0.00,CLR,,0.04,WeatherDisplay:10.37,2013-09-02 21:16:00,
2013-09-02 17:21:00,79.7,73.3,29.65,ENE,68,0.0,0.0,81,0.00,CLR,,0.04,WeatherDisplay:10.37,2013-09-02 21:21:00,
2013-09-02 17:26:00,79.7,73.7,29.65,NE,45,0.0,0.0,82,0.00,CLR,,0.04,WeatherDisplay:10.37,2013-09-02 21:26:00,
2013-09-02 17:31:00,79.9,73.5,29.64,NE,45,0.0,0.0,81,0.00,CLR,,0.04,WeatherDisplay:10.37,2013-09-02 21:31:00,
2013-09-02 17:36:00,80.1,73.7,29.64,SSW,202,2.3,2.3,81,0.00,CLR,,0.04,WeatherDisplay:10.37,2013-09-02 21:36:00,
2013-09-02 17:41:00,80.2,73.9,29.64,South,180,1.1,1.1,81,0.00,CLR,,0.04,WeatherDisplay:10.37,2013-09-02 21:41:00,
2013-09-02 17:46:00,80.2,73.9,29.64,SSW,202,1.1,1.1,81,0.00,CLR,,0.04,WeatherDisplay:10.37,2013-09-02 21:46:00,
2013-09-02 17:51:00,80.1,73.3,29.63,South,180,1.1,0.0,80,0.00,CLR,,0.04,WeatherDisplay:10.37,2013-09-02 21:51:00,
2013-09-02 17:56:00,79.9,73.2,29.63,SW,225,0.0,0.0,80,0.00,CLR,,0.04,WeatherDisplay:10.37,2013-09-02 21:56:00,
2013-09-02 18:01:00,79.9,73.2,29.63,East,90,0.5,0.5,80,0.00,CLR,,0.04,WeatherDisplay:10.37,2013-09-02 22:01:00,
2013-09-02 18:06:00,79.7,73.0,29.63,East,90,1.1,1.1,80,0.00,CLR,,0.04,WeatherDisplay:10.37,2013-09-02 22:06:00,
2013-09-02 18:11:00,79.5,72.8,29.64,East,90,0.2,0.2,80,0.00,CLR,,0.04,WeatherDisplay:10.37,2013-09-02 22:11:00,
2013-09-02 18:16:00,79.3,73.0,29.64,WSW,248,1.1,0.0,81,0.00,CLR,,0.04,WeatherDisplay:10.37,2013-09-02 22:16:00,
2013-09-02 18:21:00,79.3,73.0,29.64,West,270,1.1,1.1,81,0.00,CLR,,0.04,WeatherDisplay:10.37,2013-09-02 22:21:00,
2013-09-02 18:26:00,79.2,72.8,29.64,ESE,112,0.0,0.0,81,0.00,CLR,,0.04,WeatherDisplay:10.37,2013-09-02 22:26:00,
2013-09-02 18:31:00,79.0,72.6,29.64,ESE,112,0.0,0.0,81,0.00,CLR,,0.04,WeatherDisplay:10.37,2013-09-02 22:31:00,
2013-09-02 18:36:00,79.0,72.6,29.64,ESE,112,0.0,0.0,81,0.00,CLR,,0.04,WeatherDisplay:10.37,2013-09-02 22:36:00,
2013-09-02 18:41:00,79.0,72.6,29.64,SE,135,0.0,0.2,81,0.00,CLR,,0.04,WeatherDisplay:10.37,2013-09-02 22:41:00,
2013-09-02 18:46:00,79.0,72.6,29.64,SE,135,0.2,0.2,81,0.00,CLR,,0.04,WeatherDisplay:10.37,2013-09-02 22:46:00,
2013-09-02 18:51:00,78.8,72.5,29.64,East,90,0.0,0.0,81,0.00,CLR,,0.04,WeatherDisplay:10.37,2013-09-02 22:51:00,
2013-09-02 18:56:00,78.4,72.5,29.64,East,90,0.0,0.0,82,0.00,CLR,,0.04,WeatherDisplay:10.37,2013-09-02 22:56:00,
2013-09-02 19:01:00,78.3,72.3,29.63,East,90,0.0,0.0,82,0.00,CLR,,0.04,WeatherDisplay:10.37,2013-09-02 23:01:00,
2013-09-02 19:06:00,77.9,72.0,29.64,East,90,0.0,0.0,82,0.00,CLR,,0.04,WeatherDisplay:10.37,2013-09-02 23:06:00,
2013-09-02 19:11:00,77.7,72.1,29.64,East,90,0.0,0.0,83,0.00,CLR,,0.04,WeatherDisplay:10.37,2013-09-02 23:11:00,
2013-09-02 19:16:00,77.4,71.8,29.64,East,90,0.0,0.0,83,0.00,CLR,,0.04,WeatherDisplay:10.37,2013-09-02 23:16:00,
2013-09-02 19:21:00,77.2,71.6,29.64,East,90,0.0,0.0,83,0.00,CLR,,0.04,WeatherDisplay:10.37,2013-09-02 23:21:00,
2013-09-02 19:26:00,77.0,71.8,29.63,East,90,0.0,0.0,84,0.00,CLR,,0.04,WeatherDisplay:10.37,2013-09-02 23:26:00,
2013-09-02 19:31:00,76.6,71.4,29.63,East,90,0.0,0.2,84,0.00,CLR,,0.04,WeatherDisplay:10.37,2013-09-02 23:31:00,
2013-09-02 19:36:00,76.5,71.3,29.63,East,90,0.0,0.0,84,0.00,CLR,,0.04,WeatherDisplay:10.37,2013-09-02 23:36:00,
2013-09-02 19:41:00,76.3,71.4,29.63,East,90,0.0,0.0,85,0.00,CLR,,0.04,WeatherDisplay:10.37,2013-09-02 23:41:00,
2013-09-02 19:46:00,76.3,71.4,29.63,East,90,0.0,0.0,85,0.00,CLR,,0.04,WeatherDisplay:10.37,2013-09-02 23:46:00,
2013-09-02 19:51:00,76.1,71.3,29.63,South,180,0.0,0.0,85,0.00,CLR,,0.04,WeatherDisplay:10.37,2013-09-02 23:51:00,
2013-09-02 19:56:00,75.9,71.1,29.63,South,180,0.0,0.0,85,0.00,CLR,,0.04,WeatherDisplay:10.37,2013-09-02 23:56:00,
2013-09-02 20:01:00,75.9,71.1,29.63,South,180,0.0,0.0,85,0.00,CLR,,0.04,WeatherDisplay:10.37,2013-09-03 00:01:00,
2013-09-02 20:06:00,75.7,70.9,29.64,South,180,0.0,0.0,85,0.00,CLR,,0.04,WeatherDisplay:10.37,2013-09-03 00:06:00,
2013-09-02 20:11:00,75.6,70.7,29.64,South,180,0.0,0.0,85,0.00,CLR,,0.04,WeatherDisplay:10.37,2013-09-03 00:11:00,
2013-09-02 20:16:00,75.4,70.9,29.64,South,180,0.0,0.0,86,0.00,CLR,,0.04,WeatherDisplay:10.37,2013-09-03 00:16:00,
2013-09-02 20:21:00,75.2,70.7,29.64,South,180,0.0,0.0,86,0.00,CLR,,0.04,WeatherDisplay:10.37,2013-09-03 00:21:00,
2013-09-02 20:26:00,75.2,70.7,29.64,South,180,0.0,0.0,86,0.00,CLR,,0.04,WeatherDisplay:10.37,2013-09-03 00:26:00,
2013-09-02 20:31:00,75.0,70.5,29.64,South,180,0.0,0.0,86,0.00,CLR,,0.04,WeatherDisplay:10.37,2013-09-03 00:31:00,
2013-09-02 20:36:00,74.8,70.7,29.64,South,180,0.0,0.0,87,0.00,CLR,,0.04,WeatherDisplay:10.37,2013-09-03 00:36:00,
2013-09-02 20:41:00,74.8,70.7,29.64,South,180,0.0,0.0,87,0.00,CLR,,0.04,WeatherDisplay:10.37,2013-09-03 00:41:00,
2013-09-02 20:46:00,74.7,70.5,29.63,SSE,158,0.0,0.0,87,0.00,CLR,,0.04,WeatherDisplay:10.37,2013-09-03 00:46:00,
2013-09-02 20:51:00,74.5,70.4,29.63,South,180,0.0,0.0,87,0.00,CLR,,0.04,WeatherDisplay:10.37,2013-09-03 00:51:00,
2013-09-02 20:56:00,74.5,70.4,29.63,South,180,0.0,0.0,87,0.00,CLR,,0.04,WeatherDisplay:10.37,2013-09-03 00:56:00,
2013-09-02 21:01:00,74.5,70.4,29.63,SSE,158,0.5,0.5,87,0.00,CLR,,0.04,WeatherDisplay:10.37,2013-09-03 01:01:00,
2013-09-02 21:06:00,74.3,70.2,29.63,SW,225,0.0,0.0,87,0.00,CLR,,0.04,WeatherDisplay:10.37,2013-09-03 01:06:00,
2013-09-02 21:11:00,74.1,70.0,29.64,West,270,0.0,0.0,87,0.00,CLR,,0.04,WeatherDisplay:10.37,2013-09-03 01:11:00,
2013-09-02 21:16:00,74.1,70.0,29.63,SW,225,1.1,1.1,87,0.00,CLR,,0.04,WeatherDisplay:10.37,2013-09-03 01:16:00,
2013-09-02 21:21:00,74.1,70.3,29.64,SSE,158,0.0,0.0,88,0.00,CLR,,0.04,WeatherDisplay:10.37,2013-09-03 01:21:00,
2013-09-02 21:26:00,74.1,70.3,29.64,SW,225,0.0,0.0,88,0.00,CLR,,0.04,WeatherDisplay:10.37,2013-09-03 01:26:00,
2013-09-02 21:31:00,74.1,70.3,29.64,SW,225,0.0,0.0,88,0.00,CLR,,0.04,WeatherDisplay:10.37,2013-09-03 01:31:00,
2013-09-02 21:36:00,74.1,70.3,29.64,SW,225,0.0,0.0,88,0.00,CLR,,0.04,WeatherDisplay:10.37,2013-09-03 01:36:00,
2013-09-02 21:41:00,74.1,70.3,29.64,NE,45,0.0,0.0,88,0.00,CLR,,0.04,WeatherDisplay:10.37,2013-09-03 01:41:00,
2013-09-02 21:46:00,73.9,70.5,29.64,NE,45,0.0,0.0,89,0.00,CLR,,0.04,WeatherDisplay:10.37,2013-09-03 01:46:00,
2013-09-02 21:51:00,73.9,70.5,29.64,NE,45,0.0,0.0,89,0.00,CLR,,0.04,WeatherDisplay:10.37,2013-09-03 01:51:00,
2013-09-02 21:56:00,73.8,70.3,29.64,ENE,68,0.0,0.0,89,0.00,CLR,,0.04,WeatherDisplay:10.37,2013-09-03 01:56:00,
2013-09-02 22:01:00,73.8,70.3,29.65,ENE,68,0.0,0.0,89,0.00,CLR,,0.04,WeatherDisplay:10.37,2013-09-03 02:01:00,
2013-09-02 22:06:00,73.6,70.1,29.65,ENE,68,0.0,0.0,89,0.00,CLR,,0.04,WeatherDisplay:10.37,2013-09-03 02:06:00,
2013-09-02 22:11:00,73.6,70.1,29.64,ENE,68,0.5,0.5,89,0.00,CLR,,0.04,WeatherDisplay:10.37,2013-09-03 02:11:00,
2013-09-02 22:16:00,73.6,70.1,29.64,ENE,68,1.1,0.0,89,0.00,CLR,,0.04,WeatherDisplay:10.37,2013-09-03 02:16:00,
2013-09-02 22:21:00,73.4,70.0,29.64,ENE,68,0.0,0.0,89,0.00,CLR,,0.04,WeatherDisplay:10.37,2013-09-03 02:21:00,
2013-09-02 22:26:00,73.4,70.0,29.65,NNE,22,0.0,0.0,89,0.00,CLR,,0.04,WeatherDisplay:10.37,2013-09-03 02:26:00,
2013-09-02 22:31:00,73.4,70.0,29.65,SSW,202,0.0,0.0,89,0.00,CLR,,0.04,WeatherDisplay:10.37,2013-09-03 02:31:00,
2013-09-02 22:36:00,73.4,70.0,29.65,South,180,1.1,1.1,89,0.00,CLR,,0.04,WeatherDisplay:10.37,2013-09-03 02:36:00,
2013-09-02 22:41:00,73.4,70.0,29.65,SSW,202,0.0,0.0,89,0.00,CLR,,0.04,WeatherDisplay:10.37,2013-09-03 02:41:00,
2013-09-02 22:46:00,73.4,70.3,29.65,SSW,202,0.0,0.0,90,0.00,CLR,,0.04,WeatherDisplay:10.37,2013-09-03 02:46:00,
2013-09-02 22:51:00,73.2,70.1,29.65,SSW,202,0.0,0.0,90,0.00,CLR,,0.04,WeatherDisplay:10.37,2013-09-03 02:51:00,
2013-09-02 22:56:00,73.2,70.1,29.65,ENE,68,0.0,0.0,90,0.00,CLR,,0.04,WeatherDisplay:10.37,2013-09-03 02:56:00,
2013-09-02 23:01:00,73.2,70.1,29.65,ENE,68,0.0,0.0,90,0.00,CLR,,0.04,WeatherDisplay:10.37,2013-09-03 03:01:00,
2013-09-02 23:06:00,73.0,69.9,29.65,ENE,68,0.0,0.0,90,0.00,CLR,,0.04,WeatherDisplay:10.37,2013-09-03 03:06:00,
2013-09-02 23:11:00,73.0,69.9,29.65,ENE,68,0.0,0.0,90,0.00,CLR,,0.04,WeatherDisplay:10.37,2013-09-03 03:11:00,
2013-09-02 23:16:00,73.0,69.6,29.65,ENE,68,0.0,0.0,89,0.00,CLR,,0.04,WeatherDisplay:10.37,2013-09-03 03:16:00,
2013-09-02 23:21:00,72.9,69.4,29.65,ENE,68,0.0,0.0,89,0.00,CLR,,0.04,WeatherDisplay:10.37,2013-09-03 03:21:00,
2013-09-02 23:26:00,72.9,69.4,29.66,ENE,68,0.0,0.0,89,0.00,CLR,,0.04,WeatherDisplay:10.37,2013-09-03 03:26:00,
2013-09-02 23:31:00,72.9,69.4,29.65,ENE,68,0.0,0.0,89,0.00,CLR,,0.04,WeatherDisplay:10.37,2013-09-03 03:31:00,
2013-09-02 23:36:00,72.7,69.2,29.66,ENE,68,0.0,0.0,89,0.00,CLR,,0.04,WeatherDisplay:10.37,2013-09-03 03:36:00,
2013-09-02 23:41:00,72.7,69.2,29.66,ENE,68,0.0,0.0,89,0.00,CLR,,0.04,WeatherDisplay:10.37,2013-09-03 03:41:00,
2013-09-02 23:46:00,72.5,69.1,29.66,ENE,68,0.0,0.0,89,0.00,CLR,,0.04,WeatherDisplay:10.37,2013-09-03 03:46:00,
2013-09-02 23:51:00,72.5,69.1,29.66,ENE,68,0.0,0.0,89,0.00,CLR,,0.04,WeatherDisplay:10.37,2013-09-03 03:51:00,
2013-09-02 23:56:00,72.5,69.1,29.66,ENE,68,0.0,0.0,89,0.00,CLR,,0.04,WeatherDisplay:10.37,2013-09-03 03:56:00,